TimePST,TemperatureF,Dew PointF,Humidity,Sea Level PressureIn,VisibilityMPH,Wind Direction,Wind SpeedMPH,Gust SpeedMPH,PrecipitationIn,Events,Conditions,WindDirDegrees,DateUTC
12:53 AM,27.0,19.9,75,30.28,10.0,NW,10.4,-,N/A,,Clear,320,2014-01-04 08:53:00
1:53 AM,27.0,19.0,72,30.31,10.0,NW,8.1,-,N/A,,Clear,320,2014-01-04 09:53:00
2:53 AM,25.0,17.1,72,30.33,10.0,ENE,4.6,-,N/A,,Clear,70,2014-01-04 10:53:00
3:53 AM,19.9,15.1,81,30.35,10.0,Calm,Calm,-,N/A,,Clear,0,2014-01-04 11:53:00
4:53 AM,23.0,16.0,74,30.36,10.0,Variable,4.6,-,N/A,,Clear,0,2014-01-04 12:53:00
5:53 AM,21.0,15.1,78,30.38,10.0,East,3.5,-,N/A,,Clear,100,2014-01-04 13:53:00
6:53 AM,18.0,12.0,78,30.41,10.0,East,3.5,-,N/A,,Clear,100,2014-01-04 14:53:00
7:53 AM,18.0,12.9,81,30.43,10.0,Calm,Calm,-,N/A,,Clear,0,2014-01-04 15:53:00
8:53 AM,25.0,18.0,75,30.44,10.0,Calm,Calm,-,N/A,,Clear,0,2014-01-04 16:53:00
9:53 AM,30.9,21.9,69,30.45,10.0,Calm,Calm,-,N/A,,Clear,0,2014-01-04 17:53:00
10:53 AM,34.0,23.0,64,30.46,10.0,Calm,Calm,-,N/A,,Clear,0,2014-01-04 18:53:00
11:53 AM,36.0,21.9,57,30.44,10.0,Calm,Calm,-,N/A,,Clear,0,2014-01-04 19:53:00
12:53 PM,37.9,23.0,55,30.43,10.0,Calm,Calm,-,N/A,,Clear,0,2014-01-04 20:53:00
1:53 PM,39.9,21.9,49,30.41,10.0,Calm,Calm,-,N/A,,Clear,0,2014-01-04 21:53:00
2:53 PM,39.9,23.0,51,30.41,10.0,SW,3.5,-,N/A,,Clear,220,2014-01-04 22:53:00
3:53 PM,39.0,23.0,53,30.42,10.0,Calm,Calm,-,N/A,,Clear,0,2014-01-04 23:53:00
4:53 PM,30.0,19.9,66,30.43,10.0,NNE,3.5,-,N/A,,Clear,30,2014-01-05 00:53:00
5:53 PM,25.0,19.0,78,30.44,10.0,West,3.5,-,N/A,,Clear,270,2014-01-05 01:53:00
6:53 PM,25.0,19.9,81,30.45,10.0,NNE,3.5,-,N/A,,Clear,30,2014-01-05 02:53:00
7:53 PM,23.0,18.0,81,30.46,10.0,ENE,3.5,-,N/A,,Clear,70,2014-01-05 03:53:00
8:53 PM,21.9,17.1,82,30.46,10.0,ESE,5.8,-,N/A,,Clear,110,2014-01-05 04:53:00
9:53 PM,21.9,16.0,78,30.46,10.0,Calm,Calm,-,N/A,,Clear,0,2014-01-05 05:53:00
10:53 PM,21.0,15.1,78,30.46,10.0,NE,3.5,-,N/A,,Clear,50,2014-01-05 06:53:00
11:53 PM,18.0,12.9,81,30.46,10.0,Calm,Calm,-,N/A,,Clear,0,2014-01-05 07:53:00